Change the Weather History Date:

Saturday, April 13, 2013

  Actual Average Record
Temperature  
Mean Temperature 30 °F -  
Max Temperature 35 °F 55 °F 84 °F (2006)
Min Temperature 26 °F 35 °F 16 °F (1962)
Degree Days  
Heating Degree Days 34    
Moisture  
Dew Point 25 °F    
Average Humidity 81    
Maximum Humidity 100    
Minimum Humidity 60    
Precipitation  
Precipitation 0.00 in - - ()
Sea Level Pressure  
Sea Level Pressure 29.88 in    
Wind  
Wind Speed 7 mph (West)    
Max Wind Speed 15 mph    
Max Gust Speed 20 mph    
Visibility 9 miles    
Events Snow    
Averages and records for this station are not official NWS values.
T = Trace of Precipitation, MM = Missing Value Source: NWS Daily Summary

Daily Weather History Graph

Daily Weather History Graph

Search for Another Location

Airport or City:

Trip Planner

Search our weather history database for the weather conditions in past years. The results will help you decide how hot, cold, wet, or windy it might be!

Date:

Astronomy

Apr. 13, 2013 Rise Set
Actual Time 6:31 AM CDT 7:55 PM CDT
Civil Twilight 6:01 AM CDT 8:26 PM CDT
Nautical Twilight 5:25 AM CDT 9:02 PM CDT
Astronomical Twilight 4:46 AM CDT 9:41 PM CDT
Moon 8:17 AM CDT (4/13) 11:27 PM CDT (4/13)
Length of Visible Light 14h 24m
Length of Day
13h 23m
Waxing Crescent, 10% of the Moon is Illuminated
Apr 13
Waxing Crescent
Apr 18
First Quarter
Apr 25
Full
May 2
Last Quarter
May 9
New

Hourly Weather History & Observations

Time (CDT) Temp. Windchill Dew Point Humidity Pressure Visibility Wind Dir Wind Speed Gust Speed Precip Events Conditions
12:03 AM 28.4 °F 21.2 °F 26.6 °F 93% 29.83 in 10.0 mi WNW 6.9 mph - N/A Snow Light Snow
12:23 AM 26.6 °F 20.0 °F 26.6 °F 100% 29.83 in 10.0 mi WNW 5.8 mph - N/A Snow Light Snow
12:43 AM 26.6 °F 21.2 °F 26.6 °F 100% 29.84 in 10.0 mi WNW 4.6 mph - N/A   Overcast
1:03 AM 26.6 °F 20.0 °F 26.6 °F 100% 29.84 in 10.0 mi West 5.8 mph - N/A Snow Light Snow
1:22 AM 26.6 °F 19.1 °F 26.6 °F 100% 29.84 in 10.0 mi West 6.9 mph - N/A   Overcast
1:43 AM 28.4 °F 22.2 °F 26.6 °F 93% 29.84 in 10.0 mi West 5.8 mph - N/A   Mostly Cloudy
2:03 AM 28.4 °F 23.3 °F 26.6 °F 93% 29.84 in 5.0 mi West 4.6 mph - N/A Snow Light Snow
2:22 AM 28.4 °F 22.2 °F 26.6 °F 93% 29.84 in 2.5 mi West 5.8 mph - N/A Snow Light Snow
2:43 AM 28.4 °F 21.2 °F 26.6 °F 93% 29.83 in 3.0 mi West 6.9 mph - N/A Snow Light Snow
3:02 AM 28.4 °F 24.6 °F 26.6 °F 93% 29.83 in 4.0 mi West 3.5 mph - N/A Snow Light Snow
3:23 AM 28.4 °F 23.3 °F 26.6 °F 93% 29.83 in 5.0 mi West 4.6 mph - N/A Snow Light Snow
3:43 AM 26.6 °F 21.2 °F 26.6 °F 100% 29.83 in 5.0 mi West 4.6 mph - N/A Snow Light Snow
4:02 AM 26.6 °F 22.6 °F 26.6 °F 100% 29.83 in 5.0 mi West 3.5 mph - N/A Snow Light Snow
4:23 AM 26.6 °F 22.6 °F 26.6 °F 100% 29.83 in 7.0 mi WSW 3.5 mph - N/A Snow Light Snow
4:42 AM 26.6 °F 22.6 °F 26.6 °F 100% 29.83 in 7.0 mi WSW 3.5 mph - N/A   Overcast
5:03 AM 28.4 °F 21.2 °F 26.6 °F 93% 29.83 in 10.0 mi West 6.9 mph - N/A   Overcast
5:23 AM 28.4 °F 18.5 °F 26.6 °F 93% 29.83 in 10.0 mi West 11.5 mph - N/A   Overcast
5:42 AM 28.4 °F 20.4 °F 26.6 °F 93% 29.83 in 10.0 mi West 8.1 mph - N/A   Overcast
6:03 AM 26.6 °F 17.5 °F 26.6 °F 100% 29.84 in 10.0 mi West 9.2 mph - N/A   Overcast
6:22 AM 26.6 °F 16.8 °F 24.8 °F 93% 29.84 in 10.0 mi West 10.4 mph - N/A   Overcast
6:43 AM 26.6 °F 17.5 °F 24.8 °F 93% 29.84 in 10.0 mi West 9.2 mph - N/A   Overcast
7:03 AM 26.6 °F 16.8 °F 24.8 °F 93% 29.84 in 10.0 mi West 10.4 mph - N/A   Overcast
7:22 AM 26.6 °F 16.2 °F 24.8 °F 93% 29.85 in 10.0 mi West 11.5 mph - N/A   Overcast
7:43 AM 28.4 °F 18.5 °F 24.8 °F 86% 29.85 in 10.0 mi West 11.5 mph - N/A   Overcast
8:02 AM 28.4 °F 19.1 °F 24.8 °F 86% 29.86 in 10.0 mi West 10.4 mph - N/A   Overcast
8:23 AM 28.4 °F 20.4 °F 24.8 °F 86% 29.86 in 10.0 mi West 8.1 mph - N/A   Overcast
8:43 AM 28.4 °F 18.5 °F 24.8 °F 86% 29.87 in 7.0 mi West 11.5 mph 17.3 mph N/A   Overcast
9:02 AM 28.4 °F 19.1 °F 24.8 °F 86% 29.87 in 5.0 mi West 10.4 mph - N/A   Overcast
9:23 AM 28.4 °F 17.0 °F 24.8 °F 86% 29.87 in 10.0 mi West 15.0 mph 19.6 mph N/A   Overcast
9:42 AM 28.4 °F 17.5 °F 24.8 °F 86% 29.87 in 10.0 mi West 13.8 mph - N/A   Overcast
10:03 AM 28.4 °F 18.0 °F 24.8 °F 86% 29.87 in 10.0 mi West 12.7 mph - N/A   Overcast
10:23 AM 30.2 °F 20.2 °F 24.8 °F 80% 29.87 in 10.0 mi WNW 12.7 mph - N/A   Overcast
10:42 AM 30.2 °F 20.2 °F 24.8 °F 80% 29.88 in 10.0 mi West 12.7 mph 17.3 mph N/A   Overcast
11:03 AM 30.2 °F 20.8 °F 24.8 °F 80% 29.88 in 10.0 mi West 11.5 mph - N/A   Overcast
11:23 AM 32.0 °F 23.6 °F 24.8 °F 75% 29.88 in 10.0 mi West 10.4 mph - N/A   Overcast
11:43 AM 33.8 °F 26.4 °F 24.8 °F 70% 29.89 in 10.0 mi West 9.2 mph 16.1 mph N/A   Overcast
12:03 PM 33.8 °F 25.3 °F 24.8 °F 70% 29.89 in 10.0 mi West 11.5 mph - N/A   Overcast
12:22 PM 33.8 °F 24.8 °F 23.0 °F 65% 29.89 in 10.0 mi West 12.7 mph 17.3 mph N/A   Overcast
12:43 PM 33.8 °F 25.8 °F 23.0 °F 65% 29.89 in 10.0 mi West 10.4 mph 17.3 mph N/A   Overcast
1:02 PM 33.8 °F 25.8 °F 23.0 °F 65% 29.89 in 10.0 mi WSW 10.4 mph - N/A   Overcast
1:23 PM 33.8 °F 26.4 °F 23.0 °F 65% 29.89 in 10.0 mi West 9.2 mph 17.3 mph N/A   Overcast
1:43 PM 33.8 °F 25.3 °F 23.0 °F 65% 29.90 in 10.0 mi WSW 11.5 mph 17.3 mph N/A   Overcast
2:02 PM 33.8 °F 24.8 °F 24.8 °F 70% 29.89 in 10.0 mi West 12.7 mph 18.4 mph N/A   Overcast
2:23 PM 35.6 °F 28.6 °F 24.8 °F 65% 29.90 in 10.0 mi West 9.2 mph - N/A   Overcast
2:42 PM 35.6 °F 27.5 °F 23.0 °F 60% 29.89 in 10.0 mi West 11.5 mph - N/A   Overcast
3:03 PM 33.8 °F 25.8 °F 24.8 °F 70% 29.89 in 10.0 mi West 10.4 mph - N/A   Overcast
3:23 PM 33.8 °F 25.8 °F 24.8 °F 70% 29.89 in 10.0 mi West 10.4 mph - N/A   Overcast
3:42 PM 33.8 °F 27.0 °F 24.8 °F 70% 29.89 in 10.0 mi West 8.1 mph - N/A   Overcast
4:03 PM 33.8 °F 27.7 °F 24.8 °F 70% 29.89 in 10.0 mi West 6.9 mph - N/A   Overcast
4:22 PM 33.8 °F 27.7 °F 24.8 °F 70% 29.89 in 10.0 mi West 6.9 mph - N/A   Overcast
4:43 PM 35.6 °F 29.2 °F 23.0 °F 60% 29.88 in 10.0 mi West 8.1 mph - N/A   Overcast
5:03 PM 33.8 °F 28.6 °F 21.2 °F 60% 29.89 in 10.0 mi West 5.8 mph - N/A   Overcast
5:22 PM 33.8 °F 28.6 °F 23.0 °F 65% 29.89 in 10.0 mi West 5.8 mph - N/A   Overcast
5:43 PM 33.8 °F - 23.0 °F 65% 29.89 in 10.0 mi Calm Calm - N/A   Overcast
6:02 PM 33.8 °F - 21.2 °F 60% 29.89 in 10.0 mi Calm Calm - N/A   Mostly Cloudy
6:23 PM 33.8 °F - 21.2 °F 60% 29.90 in 10.0 mi Calm Calm - N/A   Mostly Cloudy
6:42 PM 33.8 °F - 21.2 °F 60% 29.90 in 10.0 mi Calm Calm - N/A   Overcast
7:03 PM 32.0 °F - 23.0 °F 69% 29.90 in 10.0 mi Calm Calm - N/A   Overcast
7:23 PM 32.0 °F - 23.0 °F 69% 29.90 in 10.0 mi Calm Calm - N/A   Overcast
7:43 PM 32.0 °F - 23.0 °F 69% 29.90 in 10.0 mi Calm Calm - N/A   Overcast
8:03 PM 32.0 °F - 23.0 °F 69% 29.91 in 10.0 mi Calm Calm - N/A   Overcast
8:22 PM 32.0 °F - 23.0 °F 69% 29.91 in 10.0 mi Calm Calm - N/A   Overcast
8:43 PM 30.2 °F - 23.0 °F 75% 29.91 in 10.0 mi Calm Calm - N/A   Mostly Cloudy
9:03 PM 30.2 °F - 23.0 °F 75% 29.92 in 10.0 mi Calm Calm - N/A   Scattered Clouds
9:22 PM 28.4 °F - 23.0 °F 80% 29.93 in 10.0 mi Calm Calm - N/A   Scattered Clouds
9:43 PM 28.4 °F - 24.8 °F 86% 29.94 in 10.0 mi Calm Calm - N/A   Mostly Cloudy
10:02 PM 28.4 °F - 24.8 °F 86% 29.95 in 10.0 mi Calm Calm - N/A   Overcast
10:23 PM 28.4 °F - 24.8 °F 86% 29.95 in 10.0 mi Calm Calm - N/A   Mostly Cloudy
10:43 PM 26.6 °F - 24.8 °F 93% 29.95 in 10.0 mi Calm Calm - N/A   Scattered Clouds
11:02 PM 28.4 °F - 24.8 °F 86% 29.95 in 10.0 mi Calm Calm - N/A   Mostly Cloudy
11:23 PM 28.4 °F 24.6 °F 24.8 °F 86% 29.95 in 10.0 mi East 3.5 mph - N/A   Overcast
11:42 PM 28.4 °F 22.2 °F 24.8 °F 86% 29.94 in 10.0 mi East 5.8 mph - N/A   Overcast